User: anonymous   Login
Location: Unspecified
(0.0000°N, 0.0000°E)
Time: 19:30:17
(UTC+00:00)
Language:

NOSS 8 (F) - Orbit

View from above orbital plane
View from above orbital plane
View from above satellite
View from above satellite

Ground track
Ground track

The orbit data is extracted from the following two-line orbital elements,

1 18010U 87043F   19063.75218013 0.00000800  00000-0  83040-4 0    08
2 18010  63.3089 285.6302 0912626  55.4078 304.5922 13.45413932    02
Epoch (UTC): 04 March 2019 18:03:08
Eccentricity: 0.0912626
inclination: 63.3089°
perigee height: 407 km
apogee height: 1770 km
right ascension of ascending node: 285.6302°
argument of perigee: 55.4078°
revolutions per day: 13.45413932
mean anomaly at epoch: 304.5922°
orbit number at epoch: 0

The dashed part of the orbit path shows where the satellite is in the earth's shadow,  

DLR